Timeline UpdatesTrip UpdatesNews PostsPvt Posts♥♥Travel TipsAdmin PostsConv PostsFollowed PostsChat RequestsBlog PostsPNR Posts

Disclaimer
Search
 
 
Mon Nov 24, 2014 12:23:11 ISTHomeTrainsΣChainsAtlasPNRForumGalleryNewsFAQTripsMembersLoginFeedback
PNR Super Search

Ticket PNR Status Inquiry - PNR: 820-xxxxxxx (E-Ticket)

OLD STATUS

Status Last Updated on: Apr 18 2012 (3:24PM) IST

Date of Journey: Wed Apr 18, 2012   Class: AC 3-tier - 3A   (Total Seats available for this Class/Quota: Avbl >42)
Passenger 1: B3,28 (Booking Status: W/L 5,HO)
* Please Note that in case the Final Charts have not been prepared, the Current Status might upgrade/downgrade at a later stage.
Chart PREPARED

Balharshah-Mumbai CST Passenger/51196

Travel Time: 13h 29m    30 halts    Distance: 689 km    Avg Speed: 51 km/hr
Type: Passenger
Zone: CR/Central
Departs @ 17:58
Platform# ???
SMTWTFS
Chandrapur Maharashtra/CD 
Arrives @ 07:27 +1 night
Platform# 2
SMTWTFS
Nasik Road/NK 

30 halts. 79 intermediate Stations between Chandrapur Maharashtra and Nasik Road

Show ALL intermediate Stations  Show Old Time-Table

#TrkCodeStation NameX/OArrivesAvgDepartsAvgHaltPFDay#KmSpeedElevZoneAddress
1/==/BPQBalharshah Junction (5)  -17:30---1-13.835188mCRBallarpur. Ph : 07172 - 240341, Maharashtra
2/==/BUPHBabupeth (2)XO  17:46-17:48-2m--1-4.534196mCRChandrapur, Maharashtra
3/==/CDChandrapur Maharashtra (3)»X  17:56-17:58-2m--10.040194mCRChandrapur 442401, Maharashtra
4/==/TAETadaliXO  18:20-18:22-2m--114.796207mCRTadali, Maharashtra
5/==/BUXBhandak (5)XO  18:28-18:30-2m--124.345207mCRChandrapur, Maharashtra
6/==/MJRIMajri Junction (3)  18:43-18:45-2m--134.093198mCRDist. Chandrapur, Maharashtra
7/==/WRRWarora (2)X  18:53-18:55-2m--146.463214mCRWarora, Maharashtra
8/==/CKNIChikni Road (2)  19:05-19:07-2m--156.979211mCRChandrapur, Maharashtra
9/==/NGINagriO  19:16-19:18-2m--168.7100230mCRHinganghat, Maharashtra
10/==/HGTHinganghat (3)XO  19:28-19:30-2m--185.554228mCRHinganghat, Maharashtra
11/==/SNNSonegaon (2)  19:48-19:50-2m--1101.749262mCRWardha, Maharashtra
12/==/BPKBhugaon (3)X  19:58-20:00-2m--1108.29267mCRWardha, Maharashtra
13/==/WRWardha Junction (4)XO21:10-22:35-85m--1118.977289mCRWardha 442001, Maharashtra
14/==/PLOPulgaon Junction (3)X  22:58-23:00-2m21148.470273mCRPulgaon, Maharashtra
15/==/DMNDhamangaon (2)X  23:17-23:19-2m--1168.471300mCRDhamangaon, Maharashtra
16/==/CNDChandur (2)X  23:33-23:35-2m--1185.138331mCRAmravati Distt, Maharashtra
17/==/BDBadnera Junction (4)  00:20-00:23-3m12213.881335mCRBadnera (Amravati) 444701, Maharashtra
18/==/MZRMurtizapur (3)  00:54-00:55-1m--2255.689303mCRMurtajapur, Maharashtra
19/==/AKAkola Junction (7)  01:20-01:25-5m12292.880284mCRAkola-444001, Maharashtra
20/==/SEGShegaon (2)O  01:53-01:55-2m--2330.0106281mCRShegaon 444203, Maharashtra
21/==/JMJalamb Junction (3)  02:02-02:05-3m--2342.492259mCRJalamb, Maharashtra
22/==/NNNandura (2)  02:13-02:15-2m--2354.673267mCRNandura, Maharashtra
23/==/MKUMalkapur (2)X  02:38-02:40-2m22382.578252mCRMalkapur, Maharashtra
24/==/BDWDBodwad (2)X  02:55-02:57-2m--2402.166294mCRBodwad, Maharashtra
25/==/VNAVarangaon (3)X  03:13-03:15-2m--2419.730220mCRVarangaon, Maharashtra
26/==/BSLBhusaval Junction (8)XO  03:40-03:50-10m32432.452208mCRBhusaval 425201, Maharashtra
27/==/JLJalgaon Junction (4)X  04:18-04:20-2m22456.587213mCRJalgaon 425001, Maharashtra
28/==/PCPachora Junction (4)X  04:53-04:55-2m--2504.284264mCRPachora 424201, Maharashtra
29/==/CSNChalisgaon Junction (3)X  05:27-05:30-3m--2549.190352mCRChalisgaon 424101, Maharashtra
30/==/NGNNandgaon (3)  05:58-06:00-2m--2591.269476mCRNandgaon, Maharashtra
31/==/MMRManmad Junction (6)X  06:22-06:25-3m42616.682580mCRManmad 423104, Maharashtra
32/==/LSLasalgaon (3)  06:43-06:45-2m--2641.178592mCRLasalgaon, Maharashtra
33/==/NRNiphad (3)  06:58-07:00-2m22658.070550mCRNashik, Maharashtra
34/==/NKNasik Road (3)•  07:27-07:30-3m22689.443563mCRNashik 422101, Maharashtra
35/==/DVLDevlali (3)  07:38-07:40-2m22695.139561mCRDist. Nashik 422401, Maharashtra
36/==/IGPIgatpuri (4)X  08:50-08:55-5m32740.023589mCRIgatpuri 422403, Maharashtra
37/==/KSRAKasara (4)X  09:33-09:35-2m--2754.465290mCRDist. Thane 421602, Maharashtra
38/==/KYNKalyan Junction (8)O  10:40 10:37-10:45 10:40-5 3m52821.85310mCRKalyan 421301, Maharashtra
39/==/TNAThane (10)  11:08 11:03-11:10 11:05-2m62842.05810mCRThane (West) 400602, Maharashtra
40/==/DRMumbai Dadar Central (8)  11:37 11:30-11:40 11:33-3m62866.3197mCRMumbai 400014, Maharashtra
41/==/CSTMMumbai CST (18)  12:00----2874.9-10mCRMumbai 400001, Maharashtra
Scroll to Top
Scroll to Bottom